Location: Tel Aviv
(32.0670°N, 34.7670°E)
Time: 03:13:36
(UTC+03:00)

Tiros 1 - Pass Details

Date: 20 January 2022
Orbit: 629 x 663 km, 48.4° (Epoch: 26 May)

Event Time Altitude Azimuth Distance (km) Brightness Sun altitude
Rises 05:26:01 0° 318° (NW) 2,965 - -15.8°
Reaches altitude 10° 05:28:47 10° 332° (NNW) 2,046 - -15.2°
Exits shadow 05:29:08 12° 335° (NNW) 1,942 9.2 -15.2°
Maximum altitude 05:32:35 24° 26° (NNE) 1,340 8.9 -14.5°
Drops below altitude 10° 05:36:21 10° 80° (E) 2,024 10.8 -13.7°
Sets 05:39:03 0° 95° (E) 2,925 12.3 -13.1°
